{"data":{"norad_id":62234,"intl_designator":"2024-231S","name":"STARLINK-32652","alt_names":[],"object_type":"PAYLOAD","status":"ACTIVE","operator":null,"country":"US","launch_date":"2024-12-05","launch_site_code":"AFWTR","launch_vehicle":null,"mission":null,"orbit_class":"UNKNOWN","rcs_meters":null,"size_class":null,"mass_kg":null,"dimensions":null,"purposes":["comms"],"wikipedia_slug":null,"has_3d_model":false,"image_url":null,"decayed_at":null,"tle_current":{"epoch":"2026-09-21T13:59:17.485728Z","epoch_age_seconds":84157,"freshness":"FRESH","line1":"1 62234U 24231S   26264.58284127  .00011147  00000+0  37024-3 0  9998","line2":"2 62234  53.1590  28.7911 0001018  94.6841 265.4276 15.31715250101769","mean_motion":15.3171525,"eccentricity":0.0001018,"inclination_deg":53.159,"raan_deg":28.7911,"arg_perigee_deg":94.6841,"mean_anomaly_deg":265.4276,"bstar":0.00037024,"rev_number":10176,"period_min":94.012251950877,"perigee_km":469.99732509598,"apogee_km":471.39174719674,"semimajor_km":6848.8315361464,"source":"CELESTRAK","updated_at":"2026-09-22T09:00:49.564705Z"}}}